• en Suisse
  • Liste des pays
  • À 7 jours
  • Température de l'eau
  • Carte satellitaire
  • Carte météo
  • Widgets météo
  • user-avatar
    Se connecter

    Météo par heure à Pridorozhnyy

    Ce jour, 18 Juillet, Mercredi

    Heure Température Précipitation Vent Pression Humidité
    00:00 +20°C° 0,1 mm 4 m/s 736 mmHg 91%
    01:00 +20°C° 0,1 mm 5 m/s 736 mmHg 92%
    02:00 +19°C° 0,1 mm 5 m/s 736 mmHg 92%
    03:00 +20°C° 0 mm 4 m/s 735 mmHg 94%
    04:00 +20°C° 0,3 mm 4 m/s 735 mmHg 94%
    05:00 +20°C° 0,3 mm 4 m/s 735 mmHg 95%
    06:00 +20°C° 0,3 mm 5 m/s 735 mmHg 95%
    07:00 +20°C° 0,3 mm 5 m/s 735 mmHg 93%
    08:00 +21°C° 0,3 mm 5 m/s 735 mmHg 92%
    09:00 +21°C° 0 mm 5 m/s 735 mmHg 90%
    10:00 +21°C° 0,4 mm 5 m/s 735 mmHg 89%
    11:00 +21°C° 0,4 mm 5 m/s 735 mmHg 88%
    12:00 +21°C° 0,4 mm 5 m/s 735 mmHg 87%
    13:00 +22°C° 0,4 mm 5 m/s 735 mmHg 83%
    14:00 +23°C° 0,4 mm 5 m/s 735 mmHg 80%
    15:00 +25°C° 0,4 mm 5 m/s 735 mmHg 76%
    16:00 +25°C° 0,4 mm 5 m/s 735 mmHg 78%
    17:00 +23°C° 0,4 mm 5 m/s 735 mmHg 80%
    18:00 +23°C° 0,4 mm 5 m/s 735 mmHg 82%
    19:00 +22°C° 0,1 mm 4 m/s 735 mmHg 86%
    20:00 +21°C° 0,1 mm 4 m/s 735 mmHg 89%
    21:00 +20°C° 0,1 mm 3 m/s 735 mmHg 92%
    22:00 +19°C° 0 mm 3 m/s 736 mmHg 93%
    23:00 +19°C° 0 mm 3 m/s 736 mmHg 94%

    Demain, 19 Juillet, Jeudi

    Heure Température Précipitation Vent Pression Humidité
    00:00 +19°C° 0 mm 3 m/s 736 mmHg 95%
    01:00 +19°C° 0 mm 3 m/s 736 mmHg 95%
    02:00 +18°C° 0 mm 3 m/s 736 mmHg 95%
    03:00 +18°C° 0 mm 3 m/s 736 mmHg 94%
    04:00 +18°C° 0 mm 3 m/s 736 mmHg 94%
    05:00 +19°C° 0 mm 3 m/s 736 mmHg 94%
    06:00 +19°C° 0 mm 3 m/s 736 mmHg 94%
    07:00 +19°C° 0,1 mm 3 m/s 737 mmHg 93%
    08:00 +20°C° 0,1 mm 4 m/s 737 mmHg 92%
    09:00 +20°C° 0,1 mm 4 m/s 737 mmHg 91%
    10:00 +21°C° 0,2 mm 4 m/s 737 mmHg 87%
    11:00 +22°C° 0,2 mm 4 m/s 737 mmHg 83%
    12:00 +23°C° 0,2 mm 4 m/s 737 mmHg 79%
    13:00 +25°C° 0,2 mm 4 m/s 737 mmHg 77%
    14:00 +25°C° 0,2 mm 4 m/s 737 mmHg 74%
    15:00 +26°C° 0,2 mm 4 m/s 737 mmHg 72%
    16:00 +26°C° 0,2 mm 4 m/s 738 mmHg 73%
    17:00 +26°C° 0,2 mm 4 m/s 738 mmHg 73%
    18:00 +26°C° 0,2 mm 3 m/s 738 mmHg 74%
    19:00 +24°C° 0,2 mm 3 m/s 738 mmHg 80%
    20:00 +22°C° 0,2 mm 3 m/s 738 mmHg 86%
    21:00 +20°C° 0,2 mm 3 m/s 738 mmHg 92%
    22:00 +20°C° 0 mm 3 m/s 738 mmHg 93%
    23:00 +20°C° 0 mm 3 m/s 738 mmHg 94%

    Après-demain, 20 Juillet, Vendredi

    Heure Température Précipitation Vent Pression Humidité
    00:00 +19°C° 0 mm 3 m/s 738 mmHg 95%
    01:00 +19°C° 0 mm 3 m/s 739 mmHg 95%
    02:00 +19°C° 0 mm 3 m/s 739 mmHg 95%
    03:00 +19°C° 0 mm 3 m/s 739 mmHg 95%
    04:00 +19°C° 0,1 mm 3 m/s 739 mmHg 93%
    05:00 +19°C° 0,1 mm 3 m/s 739 mmHg 92%
    06:00 +20°C° 0,1 mm 3 m/s 739 mmHg 90%
    07:00 +21°C° 0,6 mm 4 m/s 740 mmHg 87%
    08:00 +22°C° 0,6 mm 4 m/s 740 mmHg 85%
    09:00 +23°C° 0,6 mm 4 m/s 740 mmHg 82%
    10:00 +26°C° 0,9 mm 4 m/s 740 mmHg 78%
    11:00 +27°C° 0,9 mm 4 m/s 740 mmHg 74%
    12:00 +28°C° 0,9 mm 4 m/s 740 mmHg 70%
    13:00 +29°C° 0,4 mm 4 m/s 740 mmHg 66%
    14:00 +29°C° 0,4 mm 3 m/s 740 mmHg 62%
    15:00 +30°C° 0,4 mm 3 m/s 740 mmHg 59%
    16:00 +29°C° 0,6 mm 3 m/s 740 mmHg 64%
    17:00 +28°C° 0,6 mm 3 m/s 740 mmHg 70%
    18:00 +28°C° 0,6 mm 2 m/s 740 mmHg 75%
    19:00 +26°C° 0,1 mm 2 m/s 740 mmHg 80%
    20:00 +25°C° 0,1 mm 2 m/s 740 mmHg 85%
    21:00 +23°C° 0,1 mm 2 m/s 740 mmHg 91%
    22:00 +23°C° 0 mm 2 m/s 740 mmHg 92%
    23:00 +21°C° 0 mm 2 m/s 740 mmHg 93%

    21 Juillet, Samedi

    Heure Température Précipitation Vent Pression Humidité
    00:00 +21°C° 0 mm 2 m/s 740 mmHg 93%
    01:00 +21°C° 1 mm 2 m/s 740 mmHg 94%
    02:00 +20°C° 1 mm 2 m/s 740 mmHg 94%
    03:00 +20°C° 1 mm 2 m/s 740 mmHg 95%
    04:00 +20°C° 0,2 mm 2 m/s 740 mmHg 94%
    05:00 +20°C° 0,2 mm 3 m/s 740 mmHg 93%
    06:00 +21°C° 0,2 mm 3 m/s 740 mmHg 93%
    07:00 +22°C° 0 mm 3 m/s 740 mmHg 87%
    08:00 +25°C° 0 mm 4 m/s 740 mmHg 81%
    09:00 +26°C° 0 mm 4 m/s 741 mmHg 76%
    10:00 +27°C° 0 mm 4 m/s 741 mmHg 70%
    11:00 +29°C° 0 mm 5 m/s 741 mmHg 64%
    12:00 +30°C° 0 mm 5 m/s 741 mmHg 58%
    13:00 +30°C° 0,1 mm 4 m/s 741 mmHg 57%
    14:00 +32°C° 0,1 mm 4 m/s 741 mmHg 57%
    15:00 +32°C° 0,1 mm 4 m/s 741 mmHg 56%
    16:00 +30°C° 0,5 mm 3 m/s 741 mmHg 63%
    17:00 +29°C° 0,5 mm 3 m/s 741 mmHg 69%
    18:00 +28°C° 0,5 mm 2 m/s 741 mmHg 76%
    19:00 +27°C° 0,1 mm 2 m/s 741 mmHg 80%
    20:00 +25°C° 0,1 mm 2 m/s 741 mmHg 84%
    21:00 +24°C° 0,1 mm 2 m/s 741 mmHg 88%
    22:00 +23°C° 0,3 mm 2 m/s 741 mmHg 90%
    23:00 +21°C° 0,3 mm 2 m/s 741 mmHg 92%

    22 Juillet, Dimanche

    Heure Température Précipitation Vent Pression Humidité
    00:00 +21°C° 0,3 mm 2 m/s 741 mmHg 93%
    01:00 +20°C° 0,1 mm 2 m/s 741 mmHg 94%
    02:00 +20°C° 0,1 mm 2 m/s 741 mmHg 94%
    03:00 +20°C° 0,1 mm 2 m/s 741 mmHg 95%
    04:00 +20°C° 0 mm 2 m/s 741 mmHg 94%
    05:00 +20°C° 0 mm 2 m/s 741 mmHg 93%
    06:00 +21°C° 0 mm 2 m/s 741 mmHg 92%
    07:00 +23°C° 0,1 mm 2 m/s 741 mmHg 87%
    08:00 +25°C° 0,1 mm 3 m/s 741 mmHg 81%
    09:00 +27°C° 0,1 mm 3 m/s 741 mmHg 75%
    10:00 +28°C° 0,1 mm 3 m/s 741 mmHg 68%
    11:00 +29°C° 0,1 mm 3 m/s 741 mmHg 61%
    12:00 +30°C° 0,1 mm 4 m/s 741 mmHg 54%
    13:00 +32°C° 0,1 mm 4 m/s 741 mmHg 53%
    14:00 +32°C° 0,1 mm 4 m/s 741 mmHg 53%
    15:00 +31°C° 0,1 mm 3 m/s 741 mmHg 52%
    16:00 +30°C° 0,8 mm 3 m/s 741 mmHg 60%
    17:00 +29°C° 0,8 mm 3 m/s 741 mmHg 67%
    18:00 +28°C° 0,8 mm 3 m/s 741 mmHg 74%
    19:00 +26°C° 0,1 mm 3 m/s 741 mmHg 79%
    20:00 +25°C° 0,1 mm 3 m/s 741 mmHg 84%
    21:00 +24°C° 0,1 mm 3 m/s 741 mmHg 89%
    22:00 +22°C° 0,1 mm 3 m/s 741 mmHg 90%
    23:00 +22°C° 0,1 mm 3 m/s 741 mmHg 92%

    23 Juillet, Lundi

    Heure Température Précipitation Vent Pression Humidité
    00:00 +21°C° 0,1 mm 3 m/s 741 mmHg 93%
    01:00 +21°C° 0,1 mm 3 m/s 741 mmHg 94%
    02:00 +20°C° 0,1 mm 3 m/s 741 mmHg 95%
    03:00 +20°C° 0,1 mm 3 m/s 741 mmHg 96%
    04:00 +20°C° 0,2 mm 3 m/s 741 mmHg 96%
    05:00 +21°C° 0,2 mm 3 m/s 741 mmHg 95%
    06:00 +21°C° 0,2 mm 3 m/s 741 mmHg 94%
    07:00 +22°C° 0,5 mm 3 m/s 741 mmHg 90%
    08:00 +24°C° 0,5 mm 3 m/s 741 mmHg 86%
    09:00 +26°C° 0,5 mm 3 m/s 741 mmHg 82%
    10:00 +27°C° 0,5 mm 4 m/s 742 mmHg 76%
    11:00 +28°C° 0,5 mm 4 m/s 742 mmHg 69%
    12:00 +29°C° 0,5 mm 4 m/s 742 mmHg 63%
    13:00 +29°C° 1 mm 4 m/s 742 mmHg 66%
    14:00 +29°C° 1 mm 4 m/s 742 mmHg 70%
    15:00 +28°C° 1 mm 4 m/s 742 mmHg 73%
    16:00 +27°C° 0,9 mm 4 m/s 742 mmHg 77%
    17:00 +26°C° 0,9 mm 4 m/s 742 mmHg 80%
    18:00 +26°C° 0,9 mm 4 m/s 742 mmHg 84%
    19:00 +25°C° 0,8 mm 4 m/s 742 mmHg 87%
    20:00 +24°C° 0,8 mm 3 m/s 742 mmHg 89%
    21:00 +22°C° 0,8 mm 3 m/s 742 mmHg 91%
    22:00 +22°C° 0,2 mm 4 m/s 742 mmHg 92%
    23:00 +21°C° 0,2 mm 4 m/s 742 mmHg 93%
    Voir plus